Lid_Strength_Index
9 11 12 12 11 11 11 12 12 11 10 11 12 11 8 7 7 7 7 6 6 5 4 3 2 2 2 2 2 2 3 3 4 4 4 4 3 2 1 1 0 0 0 -0
10 12 10 9 10 10 11 13 13 12 10 12 11 11 10 8 8 7 7 7 6 6 5 4 3 3 3 3 3 3 2 2 2 2 2 2 3 2 1 0 0 0 0 0
11 10 7 8 10 10 12 12 12 12 11 11 13 14 11 9 8 7 7 6 6 5 5 5 4 4 4 3 3 3 3 1 1 2 3 3 3 3 2 2 1 0 0 0
10 9 9 10 10 11 13 10 11 11 13 15 12 17 14 11 10 8 7 8 7 6 6 6 6 6 4 3 3 3 3 2 1 2 3 4 5 5 4 3 2 0 0 0
10 10 10 11 10 10 11 10 12 11 14 15 14 16 14 10 11 11 10 8 8 8 9 9 8 6 6 5 3 3 3 3 3 3 3 4 4 4 3 3 3 3 1 0
10 8 9 10 9 9 10 12 13 13 15 17 15 15 14 13 12 10 9 8 8 9 9 9 8 8 7 6 5 6 6 5 5 5 4 3 3 3 3 3 3 3 3 3
10 10 9 8 10 10 12 15 18 18 17 18 14 14 13 11 10 9 9 10 9 9 9 8 9 8 7 7 6 5 6 6 5 5 4 4 5 4 4 4 4 4 3 3
13 14 10 8 10 12 13 14 17 20 19 17 13 16 13 9 9 9 9 9 8 9 9 9 8 8 8 7 6 6 6 6 5 4 5 5 5 5 5 5 5 5 4 4
14 12 9 9 9 10 12 14 13 16 16 17 15 13 10 9 10 9 9 8 9 10 10 9 9 8 8 7 7 6 6 6 5 6 6 6 5 6 6 6 6 5 5 4
11 14 9 8 8 10 12 11 15 16 19 19 17 15 14 11 10 10 10 11 11 11 10 10 8 8 7 7 6 6 5 5 6 6 6 6 6 6 5 6 6 6 6 5
11 13 12 9 11 12 12 13 14 14 15 18 19 16 12 11 11 11 11 11 11 11 10 10 9 7 7 6 6 6 6 6 7 6 6 6 6 6 6 7 6 6 6 5
10 12 14 12 9 9 11 13 14 17 17 16 17 16 11 11 11 11 11 11 11 10 9 9 9 7 7 7 6 6 6 7 7 7 7 7 7 6 6 6 6 5 5 5
10 13 17 15 12 9 11 10 13 14 15 16 18 16 10 10 11 11 11 11 9 9 9 8 8 7 7 6 6 6 7 7 7 7 7 7 7 7 6 5 5 5 5 5
7 12 14 17 14 11 12 11 11 13 18 16 15 14 12 12 11 11 11 10 10 9 9 9 8 7 7 6 6 7 7 7 7 7 7 7 6 6 5 5 5 4 4 4
12 14 12 11 10 10 11 11 11 13 13 15 13 13 12 12 11 11 10 10 10 9 8 7 7 7 7 7 7 7 8 7 7 7 7 6 5 5 4 5 5 4 5 4
11 13 12 13 10 11 12 10 10 11 11 12 12 13 11 11 11 10 10 9 9 9 7 7 6 6 7 7 8 8 8 8 8 7 6 6 6 6 5 4 4 4 5 4
12 13 13 15 11 12 15 12 11 11 11 12 14 13 11 11 10 10 10 10 9 8 7 7 7 8 8 8 8 9 8 8 7 7 7 6 6 6 5 5 4 4 5 4
12 13 13 15 13 18 13 9 8 10 10 11 11 10 10 10 9 9 10 10 9 8 7 7 8 8 8 9 9 8 8 7 7 8 7 7 6 6 6 6 5 4 4 4
10 12 15 16 17 13 11 10 11 13 12 10 10 9 9 9 10 10 9 9 8 8 8 8 8 8 9 9 8 8 7 7 7 7 7 7 7 7 6 6 5 4 4 3
10 12 14 16 17 18 12 9 8 9 15 9 9 9 9 10 13 12 9 8 8 8 8 8 8 9 9 9 7 7 8 7 8 8 7 7 6 6 6 5 6 5 4 4
14 14 15 16 16 14 10 8 8 14 13 9 9 9 10 11 10 9 9 8 8 8 8 7 9 9 9 8 8 9 8 7 7 7 7 7 6 6 5 5 5 5 5 4
13 15 15 15 17 17 8 9 12 10 10 8 9 9 10 10 9 9 8 9 9 9 8 8 9 9 9 9 9 8 8 6 7 7 7 7 6 6 5 6 6 6 5 5
13 11 13 13 13 10 8 9 8 8 8 8 8 9 9 10 10 9 9 10 9 9 8 8 9 10 10 9 8 8 7 6 7 7 7 7 6 5 5 6 6 6 6 8
11 10 11 12 10 9 8 8 8 7 8 8 8 9 9 10 9 9 8 9 9 9 9 9 9 10 11 8 7 7 7 6 6 8 7 7 6 6 5 6 6 6 7 8
10 10 11 12 10 9 8 7 6 6 7 8 8 9 9 10 9 9 9 9 9 9 9 9 10 11 10 8 8 7 7 7 7 7 7 6 6 6 6 6 6 6 6 9
10 10 12 12 9 9 8 7 6 7 7 8 8 9 9 9 9 8 9 9 10 10 10 9 10 10 10 9 8 7 7 7 7 7 7 7 7 6 6 6 6 8 9 9